User: anonymous   Login
Location: Laverne
(36.7100°N, 99.8930°W)
Time: 02:01:43
(UTC-05:00)
Language:

Iridium 32 - Orbit

View from above orbital plane
View from above orbital plane
View from above satellite
View from above satellite

Ground track
Ground track

The orbit data is extracted from the following two-line orbital elements,

1 24945U 97051B   16269.51885179  .00000076  00000-0  19988-4 0  9996
2 24945  86.3977  37.7457 0002100  97.8804 262.2630 14.34212823996485
Epoch (UTC): 25 September 2016 12:27:08
Eccentricity: 0.0002100
inclination: 86.3977°
perigee height: 776 km
apogee height: 779 km
right ascension of ascending node: 37.7457°
argument of perigee: 97.8804°
revolutions per day: 14.34212823
mean anomaly at epoch: 262.2630°
orbit number at epoch: 99648

The dashed part of the orbit path shows where the satellite is in the earth's shadow,  

DLR